Location: Banksville Park
(38.5557°N, 75.1182°W)
Time: 12:45:27
(UTC+00:00)

Cosmos 2034 Rocket - Pass Details

Date: 19 September 2020
Orbit: 957 x 1002 km, 82.9° (Epoch: 23 October)

Event Time Altitude Azimuth Distance (km) Brightness Sun altitude
Rises 00:05:34 0° 164° (SSE) 3,709 6.8 -13.0°
Reaches altitude 10° 00:08:13 10° 158° (SSE) 2,764 6.0 -13.5°
Maximum altitude 00:14:08 42° 89° (E) 1,389 4.4 -14.6°
Drops below altitude 10° 00:20:03 10° 21° (NNE) 2,770 6.3 -15.7°
Sets 00:22:41 0° 15° (NNE) 3,719 7.1 -16.2°
